Flag for France Weather past 2 weeks in Nantes, France

52 °F

Sprinkles. Partly cloudy.

Feels Like: 48 °F
Forecast: 54 / 56 °F
Wind: 12 mph from West

Location: Nantes Airport

Current Time: Nov 29, 2015 at 7:08:35 AM

Latest Report: Nov 29, 2015 at 6:00 AM

Visibility: 3 mi

Pressure: 30.21 "Hg

Humidity: 94%

Dew point: 50 °F

Location of NantesLocation

Historic Weather in Nantes — Graph


Nantes temperature yesterday

Maximum temperature yesterday: 52 °F (at 1:00 PM)
Minimum temperature yesterday: 37 °F (at 9:00 AM)
Average temperature yesterday: 47 °F

Past Weeks' High & Low Weather Summary

High63 °F (Nov 15, 12:00 PM)100% (Nov 14, 6:00 AM)30.54 "Hg (Nov 14, 6:00 AM)
Low36 °F (Nov 22, 3:30 AM)53% (Nov 22, 12:30 PM)29.77 "Hg (Nov 21, 4:00 AM)
Average51 °F88%30.12 "Hg
* Reported Nov 14 6:00 AM — Nov 29 6:00 AM, Nantes, Weather by CustomWeather, © 2015

Note: Actual official high and low records may vary slightly from our data, if they occured in-between our weather recording intervals... More about our weather records


Nantes weather history for previous 24 hours

Time TempWeatherWind HumidityBarometerVisibility
6:00 AM
Sun, Nov 29
52 °FSprinkles. Partly cloudy.12 mph94%30.21 "Hg3 mi
5:30 AM54 °FPassing clouds.12 mph88%30.18 "Hg4 mi
5:00 AM54 °FSprinkles. Partly cloudy.12 mph88%30.18 "Hg3 mi
4:30 AM54 °FMostly cloudy.13 mph88%30.18 "HgN/A
4:00 AM54 °FPartly cloudy.14 mph88%30.18 "HgN/A
3:30 AM52 °FLight rain. Passing clouds.13 mph94%30.18 "HgN/A
3:00 AM54 °FLight rain. Partly cloudy.16 mph82%30.18 "HgN/A
2:30 AM54 °FOvercast.14 mph82%30.18 "HgN/A
2:00 AM54 °FPartly cloudy.14 mph82%30.18 "HgN/A
1:30 AM52 °FPassing clouds.14 mph88%30.18 "HgN/A
1:00 AM52 °FPassing clouds.10 mph88%30.21 "HgN/A
12:30 AM52 °FPassing clouds.12 mph88%30.18 "HgN/A
12:00 AM52 °FPassing clouds.12 mph82%30.18 "HgN/A
11:00 PM
Sat, Nov 28
50 °FPassing clouds.10 mph94%30.21 "HgN/A
10:30 PM50 °FSprinkles. Passing clouds.12 mph88%30.21 "HgN/A
9:30 PM50 °FSprinkles. Partly cloudy.9 mph88%30.21 "HgN/A
9:00 PM50 °FPassing clouds.8 mph88%30.21 "HgN/A
8:30 PM50 °FSprinkles. Partly cloudy.8 mph88%30.21 "HgN/A
8:00 PM50 °FPassing clouds.9 mph82%30.21 "HgN/A
7:30 PM48 °FPassing clouds.8 mph87%30.21 "HgN/A
7:00 PM48 °FPassing clouds.8 mph82%30.21 "HgN/A
6:30 PM48 °FPassing clouds.7 mph82%30.21 "HgN/A
6:00 PM48 °FPassing clouds.9 mph82%30.21 "HgN/A
5:30 PM48 °FPassing clouds.8 mph76%30.21 "HgN/A
5:00 PM48 °FBroken clouds.8 mph82%30.21 "HgN/A
4:30 PM48 °FSunny.7 mph82%30.24 "Hg10 mi
4:00 PM50 °FPartly sunny.9 mph76%30.24 "HgN/A
3:30 PM50 °FPartly sunny.9 mph71%30.24 "HgN/A
3:00 PM50 °FBroken clouds.8 mph71%30.24 "HgN/A
2:30 PM50 °FBroken clouds.12 mph71%30.24 "HgN/A
2:00 PM48 °FScattered clouds.7 mph76%30.24 "HgN/A
1:30 PM52 °FBroken clouds.9 mph58%30.27 "HgN/A
1:00 PM52 °FPassing clouds.8 mph58%30.27 "HgN/A
12:30 PM50 °FPassing clouds.7 mph62%30.27 "HgN/A
12:00 PM50 °FSunny.7 mph62%30.27 "Hg10 mi
11:30 AM48 °FSunny.7 mph71%30.27 "Hg10 mi
11:00 AM46 °FSunny.8 mph76%30.27 "Hg10 mi
10:30 AM45 °FSunny.5 mph76%30.27 "Hg10 mi
10:00 AM43 °FSunny.3 mph81%30.24 "Hg10 mi
9:30 AM39 °FSunny.3 mph87%30.24 "Hg10 mi
9:00 AM37 °FSunny.5 mph93%30.21 "Hg10 mi
7:30 AM39 °FClear.8 mph87%30.18 "Hg10 mi
7:00 AM39 °FClear.8 mph87%30.18 "Hg10 mi
Weather by CustomWeather, © 2015

See weather overviewHow to use our weather pages